Tracking 31027 objects as of 19-Jul-2025
HD Live streaming from Space Station
objects crossing your sky now

STARLINK-3890

Track STARLINK-3890 now!
10-day predictions
STARLINK-3890 is classified as:


NORAD ID: 52455
Int'l Code: 2022-049E
Perigee: 546.7 km
Apogee: 547.2 km
Inclination: 53.2 °
Period: 95.4 minutes
Semi major axis: 6917 km
RCS: Unknown
Launch date: May 6, 2022
Source: United States (US)
Launch site: AIR FORCE EASTERN TEST RANGE (AFETR)
Your satellite tracking list
STARLINK-32625
Track 1 satellite(s)




NASA's NSSDC Master Catalog

Two Line Element Set (TLE):
1 52455U 22049E   25199.54321765 -.00000958  00000-0 -42192-4 0  9993
2 52455  53.2187  40.2446 0000412 100.1837 259.9201 15.08814969176762
Source of the keplerian elements: AFSPC